Regional Weather Roundup
Issued by NWS Sioux Falls, SD

Home | Current Version | Previous Version | Text Only | Print | Product List | Glossary On
Versions: 1 2 3 4 5 6 7 8 9 10 11 12 13 14 15 16 17 18 19 20 21 22 23 24 25 26 27 28 29 30 31 32 33 34 35 36 37 38 39 40 41 42 43 44 45 46 47 48 49 50
000
ASUS43 KFSD 221610
RWRFSD

WEATHER ROUNDUP FOR SE SOUTH DAKOTA/SW MINNESOTA/NW IOWA
NATIONAL WEATHER SERVICE SIOUX FALLS SD
1100 AM CDT MON SEP 22 2014

NOTE: "FAIR" INDICATES FEW OR NO CLOUDS BELOW 12,000 FEET WITH NO
SIGNIFICANT WEATHER AND OR OBSTRUCTIONS TO VISIBILITY.


SDZ038>040-050-052>070-221700-
SOUTHEAST SOUTH DAKOTA

CITY           SKY/WX    TMP DP  RH WIND       PRES   REMARKS
CHAMBERLAIN    MOSUNNY   65  47  52 S13G20    30.19F
HURON          SUNNY     64  47  53 S12       30.21F
MADISON        FAIR      64  46  52 SW12      30.26F
MITCHELL       SUNNY     65  51  60 S8        30.25S
SIOUX FALLS    MOSUNNY   65  49  56 VRB5      30.27F
WINNER         FAIR      69  45  41 S23       30.18F
YANKTON        SUNNY     63  52  67 S3        30.27F
$$

MNZ071-072-080-081-089-090-097-098-221700-
SOUTHWEST MINNESOTA

CITY           SKY/WX    TMP DP  RH WIND       PRES   REMARKS
FAIRMONT       SUNNY     64  48  55 SW8       30.29F
JACKSON        SUNNY     63  48  59 SW6       30.30F
LUVERNE        SUNNY     64  46  52 W9        30.28F
MARSHALL       SUNNY     66  48  52 SW10      30.25S
MONTEVIDEO     SUNNY     66  55  68 W7        30.25F
PIPESTONE      SUNNY     64  46  52 SW8       30.27S
REDWOOD FALLS  SUNNY     64  51  62 SW9       30.26F
TRACY          SUNNY     66  50  57 SW7G16    30.27F
WINDOM         SUNNY     64  52  63 S7        30.29F
WORTHINGTON    SUNNY     63  48  59 SW9       30.29F
$$

IAZ001>003-012>014-020>022-031-032-NEZ013-014-SDZ071-221700-
NORTHWEST IOWA

CITY           SKY/WX    TMP DP  RH WIND       PRES   REMARKS
CHEROKEE       SUNNY     63  54  73 S6        30.30S
DENISON        SUNNY     64  54  68 VRB6      30.30S
ESTHERVILLE    SUNNY     62  50  64 SW7       30.30S
LE MARS        SUNNY     64  54  68 S10       30.30S
ORANGE CITY    SUNNY     64  50  59 SW10      30.29S
SHELDON        SUNNY     64  52  63 SW10      30.28S
SIOUX CITY     SUNNY     65  53  65 VRB7      30.30S
SPENCER        SUNNY     65  50  58 W7        30.30F
$$

ABBREVIATIONS USED IN REMARKS
   TC - TEMPERATURE IN CELSIUS
  WCI - WIND CHILL INDEX
   HX - HEAT INDEX
  VSB - VISIBILITY




USA.gov is the U.S. government's official web portal to all federal, state and local government web resources and services.